Regional Weather Roundup
Issued by NWS

Home | Current Version | Previous Version | Graphics & Text | Print | Product List | Glossary On
Versions: 1 2 3 4 5 6 7 8 9 10 11 12 13 14 15 16 17 18 19 20 21 22 23 24 25 26 27 28 29 30 31 32 33 34 35 36 37 38 39 40 41 42 43 44 45 46 47 48 49 50
547
ASUS43 KMPX 242110
RWRMN
WEATHER ROUNDUP FOR MINNESOTA
NATIONAL WEATHER SERVICE TWIN CITIES/CHANHASSEN MN
300 PM CST FRI NOV 24 2017


NOTE: "FAIR" INDICATES FEW OR NO CLOUDS BELOW 12,000 FEET WITH NO
SIGNIFICANT WEATHER AND/OR OBSTRUCTIONS TO VISIBILITY. N/A MEANS
CURRENT SKY AND/OR WEATHER CONDITIONS ARE NOT AVAILABLE.

MNZ060>063-068>070-242200-
   Twin Cities Metro

CITY           SKY/WX    TMP DP  RH WIND       PRES   REMARKS
TWIN CITIES    CLOUDY    57  45  64 NW15      29.40R
ST PAUL        LGT RAIN  57  45  64 NW17G25   29.40R
CRYSTAL        LGT RAIN  53  44  71 NW10G22   29.39R
BLAINE         DRIZZLE   55  46  71 SW13G22   29.38S
LAKEVILLE      LGT RAIN  55  43  62 W17G28    29.40R
EDEN PRAIRIE   LGT RAIN  55  44  66 NW20G31   29.39R
SOUTH ST PAUL  CLOUDY    58  42  55 NW10G16   29.39S
LAKE ELMO      DRIZZLE   55  43  62 NW7       29.40R
$$
MNZ001>005-007-008-013>017-022>024-027-028-242200-
   Northwest Minnesota

CITY           SKY/WX    TMP DP  RH WIND       PRES   REMARKS
BEMIDJI        PTSUNNY   42  36  79 W17G23    29.44R
HALLOCK        SUNNY     39  36  87 NW13      29.48R
ROSEAU         MOSUNNY   43  34  70 NW10      29.43R
WARROAD        PTSUNNY   43  34  70 W16       29.42R
THIEF RVR FALL SUNNY     41  34  76 NW16      29.50R
CROOKSTON      SUNNY     45  37  76 NW17      29.51R
FOSSTON        MOSUNNY   43  34  70 W16G22    29.49R
DETROIT LAKES  MOSUNNY   45  36  70 NW22G31   29.52R
MOORHEAD       SUNNY     48  36  61 NW25      29.55R
PARK RAPIDS    MOSUNNY   45  37  73 NW20G31   29.45R
MAHNOMEN       FAIR      42  35  77 NW15G28   29.51R
$$
MNZ006-009>011-018-025>026-242200-
   North Central Minnesota

CITY           SKY/WX    TMP DP  RH WIND       PRES   REMARKS
BAUDETTE       MOSUNNY   40  32  73 W13       29.39
FLAG ISLAND    CLOUDY    37  28  70 NW17G24   29.38R
INTL FALLS     MOCLDY    40  31  70 NW12      29.36R
WASKISH        MOSUNNY   39  36  87 W10G17    29.41R
BIG FORK       CLOUDY    43  36  75 W6        29.38R
LONGVILLE      PTSUNNY   45  37  76 W10       29.42R
GRAND RAPIDS   CLOUDY    41  37  86 NW15      29.41R
CRANE LAKE     PTCLDY    39  32  75 NW6       29.35R
ORR            MOSUNNY   39  30  70 NW13G20   29.33R
COOK           MOSUNNY   39  36  87 W8        29.36R
WALKER         FAIR      43  36  75 W13G20    29.44R
$$
MNZ012-019>021-037-242200-
   Northeast Minnesota

CITY           SKY/WX    TMP DP  RH WIND       PRES   REMARKS
DULUTH         CLOUDY    40  40 100 NW10      29.34R
ELY            CLOUDY    39  37  93 W9        29.31R
HIBBING        MOSUNNY   39  36  89 W6        29.36R
EVELETH        CLOUDY    38  33  82 W8        29.36R
DULUTH HARBOR  DRIZZLE   45  39  81 W7        29.36R
TWO HARBORS    CLOUDY    45  39  81 W6        29.31R
SILVER BAY     CLOUDY    43  39  87 W7        29.30R
GRAND MARAIS     N/A     43  40  89 W7        29.26R
G MARAIS ARPRT CLOUDY    37  32  81 W8        29.25R
$$
MNZ029>031-032-039>041-046>048-054>057-064-242200-
   West Central Minnesota

CITY           SKY/WX    TMP DP  RH WIND       PRES   REMARKS
FERGUS FALLS   SUNNY     48  41  76 NW22      29.54R
WHEATON        SUNNY     52  36  54 W16G25    29.58R
MORRIS         MOSUNNY   50  43  76 NW18      29.54R
ALEXANDRIA     SUNNY     46  38  73 NW20G28   29.52R
ELBOW LAKE     FAIR      47  39  76 NW16G23   29.54R HAZE
WADENA         SUNNY     45  37  76 NW13G20   29.48R
GLENWOOD       SUNNY     46  39  76 NW18G28   29.53R
APPLETON       MOSUNNY   52  39  62 NW23G29   29.57R
BENSON         MOSUNNY   50  41  71 N18G25    29.56R
ORTONVILLE     MOSUNNY   50  37  62 NW14G24   29.58R
MADISON        SUNNY     54  41  62 NW22G32   29.59R
WILLMAR        FAIR      52  43  71 NW26      29.52R
$$
MNZ033>034-036-042>043-049>051-058-059-242200-
   Central Minnesota

CITY           SKY/WX    TMP DP  RH WIND       PRES   REMARKS
ST CLOUD       PTSUNNY   48  40  73 NW13      29.44R
SAUK CENTRE    FAIR      47  40  74 W21G28    29.50R
PAYNESVILLE    MOSUNNY   50  42  74 NW14G24   29.49R
AITKIN         CLOUDY    43  39  87 W8        29.41R
PINE RIVER     CLOUDY    43  37  81 NW10      29.48R
BRAINERD       CLOUDY    47  40  76 W13       29.45R
STAPLES        MOSUNNY   45  37  76 NW13G21   29.47R
LONG PRAIRIE   FAIR      46  37  71 W21G29    29.49R
LITTLE FALLS   CLOUDY    46  34  61 NW12G18   29.46R
LITCHFIELD     CLOUDY    52  43  71 NW13G22   29.46R
BUFFALO        CLOUDY    50  42  73 W15G22    29.44R
MAPLE LAKE     CLOUDY    50  43  77 NW14G20   29.45R
HUTCHINSON     MOSUNNY   51  44  77 NW20G29   29.47R
$$
MNZ037-044-045-052-053-242200-
   East Central Minnesota

CITY           SKY/WX    TMP DP  RH WIND       PRES   REMARKS
PRINCETON      CLOUDY    52  43  71 NW12G18   29.43R
MORA           CLOUDY    45  39  81 NW12G18   29.43R
CAMBRIDGE      DRIZZLE   54  43  66 NW17G23   29.42R
RUSH CITY      DRIZZLE   48  42  81 NW9G18    29.41R
MOOSE LAKE     LGT RAIN  43  41  93 NW7       29.37R
HINCKLEY       CLOUDY    46  43  87 NW9       29.39R
CLOQUET        CLOUDY    43  39  87 W8        29.37R
MCGREGOR       PTSUNNY   43  41  93 NW7       29.41R
$$
MNZ071>073-080-081-089-090-097-098-242200-
   Southwest Minnesota

CITY           SKY/WX    TMP DP  RH WIND       PRES   REMARKS
MONTEVIDEO     MOSUNNY   52  41  66 N23G31    29.55R
GRANITE FALLS  MOSUNNY   53  43  68 NW22G32   29.56R
CANBY          SUNNY     54  39  57 W18G28    29.60R
MARSHALL       MOSUNNY   53  41  63 NW24G38   29.55R
REDWOOD FALLS  CLOUDY    53  42  66 NW22G33   29.50R
OLIVIA         CLOUDY    50  41  71 NW18G26   29.50R
PIPESTONE      MOSUNNY   54  39  58 N25G36    29.58R
WINDOM           N/A     55  37  50 W25       29.51R
WORTHINGTON    CLOUDY    55  42  61 NW29      29.55R
JACKSON        CLOUDY    55  39  54 W20G35    29.51R
SLAYTON        CLOUDY    54  42  65 NW30G39   29.55R
$$
MNZ065>067-074>077-082>085-091>093-242200-
   South Central Minnesota

CITY           SKY/WX    TMP DP  RH WIND       PRES   REMARKS
MANKATO        LGT RAIN  56  44  64 NW22G30   29.45R
NEW ULM        CLOUDY    55  43  62 NW23G31   29.46R
ST JAMES       CLOUDY    57  43  58 W30G36    29.48R
FAIRMONT       CLOUDY    60  39  45 NW21G35   29.47R
GLENCOE        CLOUDY    54  44  69 NW15G23   29.43R
FARIBAULT      LGT RAIN  59  43  55 W20G26    29.43R
OWATONNA       CLOUDY    61  43  51 W15G24    29.43R
WASECA         CLOUDY    59  41  51 W17       29.45R
ALBERT LEA     PTSUNNY   63  36  36 NW15G24   29.44R
$$
MNZ078>079-086>088-094>096-242200-
   Southeast Minnesota

CITY           SKY/WX    TMP DP  RH WIND       PRES   REMARKS
ROCHESTER      CLOUDY    59  42  53 NW14      29.43R
RED WING       CLOUDY    57  36  44 CALM      29.38S
STANTON        CLOUDY    59  41  51 NW8       29.40R
DODGE CENTER   CLOUDY    59  39  47 NW8       29.43R
WINONA         PTSUNNY   61  39  44 NW14      29.41R
AUSTIN         MOSUNNY   63  39  42 NW13G21   29.44R
PRESTON        MOSUNNY   59  40  49 N17G24    29.43R
$$
ABBREVIATIONS USED IN REMARKS
   TC - TEMPERATURES IN CELSIUS
  WCI - WIND CHILL INDEX
   HX - HEAT INDEX
  VSB - VISIBILITY
$$




USA.gov is the U.S. government's official web portal to all federal, state and local government web resources and services.